Dewpoint
52 43 42 40 38 34 28 23 14 17 20 13 12 11 9 7 9 6 8 9 13 21 22 23 20 20 23 44 54 56 54 47 51 41 46 63 65 66 67 67 68 69 70 71 71 71 72 73 73 73 73 73 73 73 73 73 73 73 73 73 73 73 73 73 73 73 73 73 73 73 73 73 73 72 72 72 72 72 72 71 71 71 71 71 71 71 71 71 71 71 71 70 69 69 68 68 68
45 43 41 38 33 26 21 19 24 16 16 10 8 8 7 8 9 7 7 15 18 22 16 15 17 19 49 54 55 56 58 61 62 62 63 64 65 65 66 67 69 69 69 70 71 71 71 72 73 73 72 73 73 73 73 73 73 73 74 73 73 73 73 73 73 73 73 73 73 73 73 73 72 72 72 72 72 72 72 71 71 71 71 71 71 71 71 70 71 70 70 70 70 70 69 69 68
49 45 39 34 25 23 20 18 22 21 17 10 9 8 8 7 6 6 8 9 16 21 14 10 25 22 30 47 49 54 55 62 62 62 61 64 64 65 66 67 69 69 69 70 70 71 71 72 73 73 72 72 73 73 73 73 73 74 74 73 73 73 73 73 73 73 73 73 73 73 73 73 72 72 72 71 72 72 72 71 70 71 70 71 70 71 71 71 71 70 70 69 69 69 69 69 68
52 44 40 32 23 19 28 18 27 13 10 9 8 8 8 8 8 7 10 11 10 11 14 11 15 27 18 52 55 57 57 60 61 61 60 63 64 65 66 67 68 68 68 69 70 71 71 72 73 73 73 73 73 73 73 73 74 74 73 73 73 73 73 73 73 73 73 73 72 72 72 72 72 71 71 71 72 72 72 72 70 70 70 70 70 71 71 71 70 70 70 68 67 68 69 69 68
45 42 38 29 25 28 30 28 15 16 11 10 8 9 11 10 8 8 9 10 13 10 12 15 15 22 31 57 57 57 58 59 61 61 61 64 65 65 65 65 65 66 67 68 70 70 71 72 73 73 73 72 73 73 73 73 73 73 73 73 73 73 73 73 73 73 73 73 72 72 72 72 71 71 72 72 72 72 71 71 71 71 71 72 71 71 71 70 70 70 69 67 68 69 70 70 69
30 31 33 27 23 24 16 19 16 12 11 10 8 8 8 8 8 8 8 9 13 10 11 12 12 17 45 46 55 58 59 57 60 60 64 64 65 64 64 65 65 66 67 68 69 70 70 72 72 72 72 72 72 73 73 73 73 72 72 73 73 73 73 73 73 73 73 72 72 72 72 72 71 71 72 72 71 71 71 70 71 71 71 71 71 71 71 70 70 69 69 68 69 70 71 70 70
27 26 29 29 24 24 19 15 12 11 11 10 9 9 9 8 8 8 8 8 14 13 13 19 21 30 49 52 55 59 60 60 59 59 64 65 64 64 65 64 64 66 67 68 69 70 70 72 72 72 72 72 72 73 73 72 72 72 73 73 73 73 73 73 73 73 73 72 72 72 72 71 71 71 71 71 71 71 70 70 69 70 70 69 69 70 71 71 70 69 68 68 69 70 70 70 70
37 27 24 19 19 19 17 13 12 12 11 11 11 10 9 9 8 8 8 7 9 11 14 19 20 19 47 52 52 57 58 62 64 65 65 65 65 66 65 65 66 66 67 68 69 69 71 72 72 72 72 72 72 73 72 72 73 73 73 73 73 73 73 73 73 73 73 72 72 72 71 71 70 70 70 70 70 70 70 70 70 69 69 69 69 70 70 70 69 69 68 68 69 69 70 70 70
29 24 30 14 16 24 11 11 11 11 10 10 9 15 30 11 10 9 8 8 7 7 8 16 17 17 46 48 50 58 63 66 66 67 66 66 66 66 66 66 65 66 67 68 69 69 71 72 72 72 72 72 73 72 72 72 72 73 73 73 73 73 73 73 73 73 72 72 72 71 71 71 70 70 69 69 69 69 69 70 70 70 69 69 69 69 69 69 69 68 68 68 69 70 70 70 70
28 22 22 17 12 10 9 9 10 10 10 10 10 9 8 9 10 9 8 7 7 6 8 12 10 28 52 52 57 61 63 66 66 66 66 67 67 67 67 66 65 66 67 68 69 69 70 72 72 72 72 72 72 72 73 72 73 73 73 73 73 73 73 73 73 72 72 72 71 71 71 70 70 70 70 69 69 69 68 69 69 69 69 69 69 68 68 68 68 69 68 68 68 70 69 70 70
28 20 26 24 16 10 10 9 9 9 9 10 9 9 8 8 9 8 8 6 6 5 12 11 11 43 55 59 62 65 65 66 66 66 67 68 68 67 66 67 67 67 67 68 68 69 69 70 72 72 72 72 72 73 73 73 73 73 73 73 73 73 73 73 73 72 72 71 71 71 71 70 70 70 69 69 68 68 68 68 68 68 68 68 68 68 67 67 67 68 69 69 69 68 70 69 69
24 18 13 11 10 10 8 8 9 9 9 8 7 7 8 9 9 7 7 6 5 6 6 8 6 49 57 60 63 64 66 66 66 66 69 69 67 67 67 66 67 66 67 67 68 68 69 69 70 71 72 72 72 73 73 73 73 73 73 73 73 73 73 72 72 72 72 72 71 71 71 70 70 69 68 68 68 67 67 67 67 67 67 67 67 67 67 66 67 67 68 69 68 68 68 70 70
21 16 12 10 10 9 9 8 7 14 10 8 6 6 7 8 7 7 6 5 4 9 12 6 3 22 56 61 65 66 66 66 67 68 68 67 67 67 66 65 66 66 66 67 67 68 68 68 69 69 71 72 73 73 73 73 73 73 73 73 73 73 73 72 72 72 72 72 71 71 70 70 69 68 68 68 67 66 66 66 66 66 66 66 66 66 66 66 66 67 68 68 68 68 68 68 69
19 17 13 10 10 8 7 7 6 7 8 8 8 7 7 6 5 5 4 3 1 8 12 36 56 59 60 63 64 65 66 66 67 68 68 67 67 66 65 65 66 66 66 66 66 67 67 68 69 70 71 71 72 73 73 73 73 73 73 73 73 73 73 73 72 72 72 71 71 71 70 69 69 69 69 68 68 67 66 65 65 65 66 66 66 66 65 66 66 67 67 67 68 68 67 68 69
17 15 17 12 7 7 6 4 3 4 3 4 4 4 4 9 6 4 11 9 -0 8 15 14 48 53 58 62 62 65 66 67 67 68 68 67 66 66 66 65 65 65 65 65 65 65 65 67 68 70 71 71 72 72 72 73 73 73 73 73 73 73 73 72 72 72 72 71 71 71 70 70 69 69 69 68 68 68 67 67 66 66 65 65 65 66 66 66 66 67 67 68 68 68 68 68 68
19 14 12 12 6 4 3 2 2 -0 -1 2 4 4 3 3 5 8 10 9 8 11 5 14 14 22 58 60 63 65 66 67 68 68 67 66 66 66 65 64 64 64 65 65 65 65 65 65 68 69 70 71 71 72 72 72 73 73 73 73 73 73 72 72 72 72 72 71 71 71 71 70 69 69 69 68 69 68 68 68 68 67 66 66 65 64 66 65 66 67 67 68 68 67 68 68 68
20 15 14 9 6 5 4 3 -1 -4 -4 -3 1 2 1 1 5 7 6 5 8 16 16 19 23 28 55 59 65 66 67 67 68 68 67 66 66 65 64 63 64 64 65 64 64 65 65 65 67 67 69 70 70 71 71 71 72 73 73 73 72 72 72 72 72 72 72 71 71 71 71 69 69 68 68 68 69 69 69 69 68 67 66 65 66 66 66 66 67 67 67 68 67 67 68 68 69
19 15 12 9 7 5 5 3 1 -1 -4 -5 -5 -4 -3 -5 1 8 4 5 11 13 17 19 48 61 61 63 66 66 67 67 68 66 66 65 65 64 63 64 64 63 64 64 64 64 64 64 65 66 68 69 69 70 71 71 72 72 72 72 72 72 72 72 72 71 72 70 71 70 69 70 69 68 68 70 69 69 68 69 68 68 68 67 66 66 67 66 67 67 67 67 67 67 67 65 66
16 16 12 9 8 6 6 5 4 1 -2 -5 -4 -4 -3 -4 3 7 5 8 7 11 17 26 62 63 63 64 66 66 66 67 67 65 65 65 64 64 63 64 63 63 63 63 63 64 64 64 64 65 66 67 68 69 71 71 72 72 72 72 72 72 72 72 71 71 70 70 70 70 70 70 68 68 69 69 70 69 69 68 69 68 68 68 67 67 67 67 67 67 68 67 67 67 66 64 63
19 16 13 11 10 9 8 6 4 2 1 0 2 5 6 3 5 19 12 11 10 12 19 34 62 62 63 64 65 65 66 66 66 64 64 64 64 64 63 63 63 63 63 63 63 64 63 64 64 64 65 66 67 68 69 70 70 71 71 71 71 71 71 71 70 70 70 70 70 70 70 70 70 68 71 71 70 68 68 69 69 68 68 68 68 68 68 67 67 68 67 67 68 67 62 60 61
18 15 13 13 13 11 9 7 6 5 4 2 2 9 3 9 11 10 14 10 14 13 11 27 62 63 64 64 65 65 66 66 64 64 64 64 64 64 63 63 63 63 63 63 64 64 64 64 64 64 65 66 66 67 68 68 69 70 70 70 71 71 71 70 70 70 70 70 70 70 70 70 70 69 70 69 68 68 67 67 67 67 67 66 69 66 65 67 67 66 67 67 66 63 60 58 59
15 15 15 14 13 10 10 9 8 7 5 2 1 1 10 9 13 8 9 6 9 9 8 29 62 63 64 64 64 65 65 64 64 64 64 64 64 64 64 63 64 63 64 63 63 64 65 65 65 66 66 66 66 66 66 67 67 67 68 69 70 70 70 70 69 69 69 69 70 69 70 70 69 69 69 68 68 67 67 68 67 67 67 67 68 67 67 66 66 66 63 61 60 60 59 58 57
12 12 13 14 14 12 12 11 8 6 3 1 1 1 6 6 10 8 12 9 10 12 10 31 61 63 64 64 64 64 64 64 64 63 63 63 63 63 66 66 65 65 64 64 64 64 65 65 66 66 66 66 65 65 65 67 66 65 67 68 69 69 70 69 68 68 68 69 68 69 68 67 67 67 67 67 66 68 67 67 67 68 67 67 68 67 67 67 66 64 62 58 57 58 57 57 56
12 11 10 12 14 13 13 12 12 9 3 3 7 13 8 9 5 10 5 8 9 14 10 40 60 63 63 63 64 64 64 64 64 62 63 62 62 63 64 64 64 65 67 65 64 66 66 66 66 66 66 66 65 64 64 65 65 64 65 68 68 68 69 68 68 67 67 68 68 67 67 64 63 65 63 65 68 69 68 68 68 67 67 67 68 66 65 66 66 64 62 58 56 57 56 56 55
10 10 10 10 14 15 15 14 13 11 6 7 15 12 10 9 12 10 5 3 14 15 17 51 60 62 63 63 64 64 65 64 62 62 63 62 63 64 63 64 65 66 65 66 66 67 66 67 67 66 67 66 64 64 64 64 64 63 64 65 66 69 66 67 67 66 66 65 67 67 66 64 64 66 66 67 67 68 69 69 68 68 68 68 68 68 67 68 67 67 66 63 60 59 58 60 63
9 9 9 9 10 15 15 13 11 9 7 7 8 10 13 11 11 9 6 2 13 14 11 39 62 62 63 64 65 65 64 63 63 62 62 63 63 62 63 64 64 64 65 66 67 67 67 67 67 67 67 66 65 65 64 63 63 63 63 63 64 67 65 65 65 65 64 64 66 65 66 66 69 68 67 66 67 68 68 68 69 68 67 67 67 67 68 69 68 68 67 66 66 66 66 65 65
7 8 9 8 8 11 12 10 9 8 6 10 9 12 16 16 16 8 18 10 23 20 15 14 62 62 63 64 65 65 63 63 62 62 63 63 63 63 63 64 64 65 65 65 67 68 67 67 67 67 67 67 66 65 65 62 65 63 62 63 65 64 65 65 66 65 65 65 66 65 65 68 69 68 68 67 68 67 68 68 67 68 68 68 68 68 70 68 68 68 67 67 67 67 67 67 66
9 6 7 7 8 10 11 11 10 7 5 4 11 11 13 13 11 9 7 16 33 15 12 12 33 61 62 64 65 64 63 63 63 63 63 63 63 63 63 63 64 65 65 65 66 67 67 67 67 67 67 67 66 65 67 63 63 62 63 63 63 65 66 65 65 64 65 65 66 65 65 68 69 68 68 68 67 67 67 67 67 67 67 68 69 69 69 69 69 69 68 68 68 68 67 67 66
8 6 2 6 7 7 8 8 9 8 8 7 6 9 10 10 9 9 7 7 35 18 13 11 31 54 60 63 64 63 63 63 63 63 63 63 63 63 63 64 64 64 65 65 66 67 67 67 67 67 67 66 66 66 64 63 62 62 61 63 62 66 65 65 64 64 65 66 66 65 66 69 69 69 68 68 68 66 67 66 66 66 67 67 69 70 70 69 68 67 67 68 68 67 66 66 67
8 7 4 1 4 6 7 8 8 7 9 13 8 5 7 9 10 10 9 9 12 29 20 12 25 54 57 63 64 63 62 62 63 63 63 63 63 63 63 64 64 64 65 66 67 67 68 68 68 68 66 66 66 66 64 61 61 62 64 62 65 65 64 64 65 65 67 66 66 66 68 69 69 69 68 68 67 66 66 66 66 66 67 67 67 69 69 69 67 67 67 67 69 67 66 66 65
6 7 6 3 0 0 5 8 7 6 9 9 10 9 9 9 9 10 10 8 7 7 12 15 30 55 59 61 63 63 63 63 63 63 64 63 63 63 63 64 64 65 65 67 67 67 67 68 68 67 66 66 67 66 63 62 61 63 62 63 65 64 62 61 65 66 67 67 67 68 68 69 69 70 69 68 67 67 66 66 67 66 66 67 67 68 69 67 67 67 67 66 66 66 66 66 66
6 6 5 3 2 2 7 11 7 5 7 11 11 11 9 8 7 8 9 8 6 6 8 35 57 57 57 57 59 59 60 61 62 62 62 64 65 63 63 64 64 66 67 67 68 67 67 67 67 66 67 66 66 65 64 64 63 64 64 66 63 65 65 65 66 65 66 67 68 67 67 68 67 67 67 68 67 67 67 66 66 67 67 67 67 68 68 67 67 67 67 65 65 65 65 65 65
5 6 15 4 2 3 6 9 10 8 7 10 10 9 11 7 7 13 10 6 6 5 44 56 56 56 57 58 59 59 59 59 60 60 61 64 65 65 64 65 65 66 66 66 67 67 67 67 67 66 65 66 65 65 64 64 64 65 66 64 65 65 65 66 66 66 67 67 68 68 68 69 68 67 67 67 68 68 67 66 67 67 67 67 67 67 66 66 66 67 67 66 65 63 64 64 64
7 7 11 11 3 3 3 8 8 10 8 6 10 9 8 9 8 9 24 21 5 11 54 56 56 56 57 58 58 58 58 58 59 59 62 64 64 65 65 65 64 65 66 66 66 66 67 66 65 65 65 65 64 64 63 63 66 65 66 66 66 65 66 66 66 67 67 67 68 68 68 69 69 68 67 67 69 68 68 67 67 67 66 65 67 67 66 66 66 65 64 65 65 64 63 63 63
13 13 12 7 5 6 4 4 6 7 8 5 8 9 8 7 8 8 7 15 8 34 54 55 56 56 56 57 57 58 58 58 59 60 63 62 63 65 64 64 65 64 65 65 65 66 65 66 65 66 65 63 64 64 63 65 65 65 65 65 65 65 66 66 67 67 67 67 67 68 68 68 68 68 67 68 68 69 68 68 67 67 66 67 67 67 65 66 66 66 64 64 65 65 64 64 63
7 7 9 7 7 4 4 5 5 4 4 3 4 7 7 7 8 9 10 22 43 52 54 55 55 56 56 56 56 57 58 58 60 61 63 63 64 65 64 64 64 64 65 66 66 66 67 65 65 64 64 63 64 64 64 65 64 64 64 64 64 64 65 65 66 67 67 67 68 68 68 68 69 69 68 68 67 67 67 68 68 67 67 68 67 66 65 64 64 64 64 64 63 64 65 64 64
8 5 4 4 4 3 4 3 4 3 1 2 3 8 8 8 9 11 12 51 53 54 54 55 55 56 56 56 57 57 58 58 60 61 62 63 64 64 64 64 63 64 65 65 66 67 66 65 64 63 64 64 64 64 64 64 64 64 63 63 63 64 65 65 66 67 67 67 67 68 68 69 68 67 68 68 67 67 67 68 67 67 69 67 68 65 65 65 65 65 64 64 63 62 62 64 64
7 6 3 3 3 2 3 3 3 2 8 3 5 5 6 9 11 11 20 50 52 53 54 54 55 56 56 56 56 56 57 60 61 60 61 62 63 63 63 63 64 64 64 65 65 66 66 64 63 63 64 64 64 64 64 64 63 63 63 63 63 64 65 65 66 66 67 67 67 67 68 68 66 67 68 67 69 68 67 67 67 68 68 66 67 67 66 66 65 65 65 63 64 63 62 63 64
6 7 6 4 3 3 4 4 2 1 1 6 4 5 5 8 10 11 25 48 52 53 53 55 55 55 56 56 56 56 57 59 60 60 61 62 63 62 63 62 64 64 63 64 65 66 65 64 64 65 65 65 65 65 65 64 64 64 64 64 64 65 66 67 66 67 67 66 66 67 68 68 67 66 67 67 66 66 66 67 67 67 66 66 65 66 65 65 65 65 65 64 64 64 63 64 64
9 8 8 8 5 4 4 4 2 -1 3 9 7 6 8 10 15 45 49 51 53 53 54 55 55 55 56 56 56 55 56 58 59 59 60 62 62 62 62 62 63 64 63 64 65 65 65 64 65 65 65 65 65 65 65 65 65 65 65 66 66 65 65 66 66 65 65 65 66 67 67 68 68 67 66 67 66 67 67 67 68 68 68 67 66 64 64 64 64 65 65 65 65 62 62 62 63
10 7 5 5 5 4 2 3 1 2 2 8 7 9 9 9 15 50 53 53 53 54 55 55 55 55 56 56 56 56 57 58 59 59 60 61 62 62 62 63 63 63 64 64 65 64 64 65 65 65 64 64 64 65 65 65 65 65 65 65 65 65 65 64 63 64 64 65 65 65 66 68 68 67 66 67 67 66 67 67 67 66 66 66 66 65 64 64 64 64 64 64 64 62 61 61 62
9 8 6 5 5 4 2 1 -1 7 11 8 8 8 10 13 32 49 51 52 52 54 54 54 55 56 56 56 57 58 58 59 59 59 60 61 61 62 62 63 64 62 63 64 64 65 65 65 65 64 64 64 64 64 65 65 64 64 64 63 63 62 62 62 62 63 64 65 65 66 67 67 66 67 67 66 66 67 66 65 65 64 63 63 65 64 64 64 64 63 63 63 62 62 62 60 60
11 7 7 6 5 4 3 -0 -2 5 7 7 8 6 15 15 34 49 50 51 52 53 53 55 56 56 56 57 58 58 59 58 59 59 61 61 61 61 62 65 65 65 64 65 66 65 64 65 64 64 64 64 65 65 65 65 64 64 63 63 63 62 62 62 63 64 65 65 65 65 66 67 66 66 65 65 66 64 62 62 62 63 62 62 62 60 62 62 63 63 64 63 63 63 62 60 60
5 8 7 6 5 4 3 2 -1 7 13 6 5 6 11 10 18 48 50 50 50 51 53 55 56 56 56 57 58 58 59 58 58 59 60 61 61 61 63 65 65 65 66 65 64 65 65 64 64 64 64 65 65 66 65 65 65 64 64 64 64 64 64 63 64 65 65 66 65 65 65 65 66 67 64 62 61 60 61 61 61 61 61 61 62 60 61 62 62 62 63 63 63 63 62 60 60
4 6 6 5 4 4 3 2 5 11 10 6 6 4 7 6 18 48 49 49 49 50 52 54 55 56 56 57 58 58 58 58 58 58 59 60 61 62 64 65 64 63 64 64 64 64 64 64 64 64 65 65 66 65 65 64 64 65 65 65 64 64 64 64 63 64 65 64 64 64 63 64 64 62 60 59 59 59 60 61 60 60 60 60 61 60 60 60 61 61 60 61 61 61 62 62 59
4 6 6 6 4 3 2 4 6 13 6 11 7 6 6 8 17 46 48 48 48 49 51 53 55 56 56 57 57 58 58 58 58 58 59 61 62 63 63 62 63 64 64 64 65 65 65 64 64 65 65 65 65 65 65 64 64 64 64 63 63 63 63 63 62 63 64 63 63 64 64 63 62 61 59 59 59 59 59 59 59 59 59 60 60 59 59 59 60 60 60 60 61 60 61 61 60
6 5 5 3 2 2 7 13 16 19 11 10 6 4 4 6 12 37 45 45 49 49 50 53 55 55 57 57 58 58 58 59 58 58 59 62 63 62 62 61 61 63 63 63 64 64 64 64 65 65 65 65 65 65 64 63 62 63 64 64 63 62 62 63 63 63 64 63 63 62 61 61 61 61 60 58 58 58 58 59 58 58 58 59 58 58 58 59 59 59 59 59 60 60 60 60 60
6 5 4 2 6 13 14 17 16 8 14 15 6 5 4 6 11 18 43 47 49 49 49 52 54 55 56 57 58 58 59 59 59 58 59 61 61 61 61 62 62 62 62 62 63 63 64 64 65 65 65 65 65 65 64 63 62 63 63 63 63 63 63 63 62 63 63 62 60 60 61 60 59 59 58 57 57 57 57 57 58 57 57 57 57 57 58 58 58 58 58 59 58 59 58 58 58
5 4 5 7 9 8 10 6 6 13 11 14 6 5 5 5 15 22 31 47 48 49 49 52 54 54 56 57 58 58 59 60 59 58 60 60 60 60 61 62 61 62 62 62 63 63 64 64 65 64 65 65 64 64 63 63 63 63 63 63 63 63 62 63 60 59 59 59 57 57 59 59 58 56 56 56 56 56 56 56 57 56 56 57 57 56 57 57 58 57 57 57 57 57 56 56 56
4 2 8 8 9 7 7 11 9 10 12 6 4 4 4 10 9 12 40 47 48 50 50 53 54 55 56 56 58 58 60 60 60 60 60 60 60 60 61 61 60 61 62 62 63 63 63 65 64 64 64 64 64 64 64 64 63 62 62 62 61 60 59 59 59 58 58 57 57 56 56 55 55 55 55 55 55 55 55 56 56 55 55 56 56 56 56 57 56 57 57 56 57 56 56 55 56
3 4 3 15 10 14 5 9 10 12 13 11 10 5 10 6 21 9 41 47 48 49 51 53 54 55 56 57 59 59 59 60 60 59 60 60 60 60 61 61 61 61 61 62 62 62 63 64 64 64 63 64 64 64 63 63 63 62 61 60 59 58 58 58 58 58 57 57 57 56 55 55 55 55 55 55 56 54 55 56 57 55 56 56 55 55 55 56 55 56 57 56 56 56 55 55 55
5 5 5 5 10 19 8 14 11 13 13 11 13 13 14 10 39 38 38 46 47 48 53 53 54 55 56 58 58 59 59 60 60 59 59 60 60 60 61 61 61 61 61 61 62 62 64 64 63 63 63 63 62 61 60 60 60 59 59 58 58 59 59 57 57 57 56 55 55 54 54 54 55 54 54 54 54 55 55 56 55 56 55 55 55 55 55 55 55 56 55 55 55 56 55 55 55
7 2 4 4 11 13 16 10 28 19 16 17 19 18 18 29 33 36 36 45 45 48 52 53 54 55 57 57 57 58 59 60 60 59 59 59 59 60 61 61 60 61 61 61 62 63 64 63 63 62 62 60 60 59 58 58 58 58 58 58 58 57 57 56 56 56 56 56 55 54 54 54 54 54 54 54 54 56 56 55 55 55 54 54 55 54 54 54 55 55 55 54 54 54 55 55 55
6 3 5 10 5 11 16 14 14 13 17 15 15 12 23 22 23 38 39 43 45 48 51 52 54 55 56 57 57 59 59 59 59 59 59 59 59 60 60 60 60 61 61 61 63 63 63 63 62 60 60 59 59 58 57 57 57 57 57 57 57 57 57 57 57 56 54 54 54 53 53 53 53 54 54 55 54 55 55 55 55 54 54 54 54 54 54 54 55 54 54 54 54 54 54 54 54
4 4 3 3 8 6 17 16 10 8 8 14 11 10 16 18 27 27 39 41 43 45 48 52 54 55 55 56 58 59 59 59 58 58 58 59 60 60 60 59 60 61 62 63 63 63 62 61 60 59 59 58 58 58 57 57 57 56 56 56 56 56 56 56 55 54 53 53 53 53 53 53 53 54 54 54 55 54 55 54 53 52 53 54 54 53 54 54 54 53 54 54 53 54 53 53 53
10 4 1 1 18 21 12 15 20 13 14 7 15 10 14 24 30 27 28 39 40 43 48 52 53 55 56 57 58 58 58 58 58 59 59 59 60 59 59 60 61 62 62 62 63 62 61 60 59 58 58 57 57 57 57 56 56 56 56 56 56 56 56 55 55 54 53 53 53 53 53 53 54 54 53 53 52 52 53 53 53 52 51 51 51 51 52 53 53 53 52 54 53 53 53 52 52
8 4 2 1 20 20 13 22 9 14 17 15 14 9 17 26 30 27 28 34 40 43 49 52 54 55 56 57 57 58 57 57 58 59 59 59 59 59 59 61 62 62 62 62 62 61 59 59 58 57 57 57 56 56 56 56 56 56 55 55 54 54 53 53 52 52 52 53 53 53 52 52 52 52 52 51 52 52 52 52 51 50 49 49 49 49 49 50 51 52 53 53 52 52 52 51 51
1 6 12 5 7 8 6 15 13 19 16 15 10 21 23 38 44 42 27 32 38 45 51 53 54 55 56 56 57 57 57 57 59 59 58 59 59 59 59 61 62 62 61 61 61 59 58 57 57 57 56 56 55 55 55 55 55 54 54 53 53 53 53 52 52 52 52 52 52 52 52 52 51 51 51 50 50 51 52 50 49 48 48 48 48 48 48 49 50 51 52 52 51 50 50 50 51